Location: Enagampalle
(16.8297°N, 81.1450°E)
Time: 19:33:02
(UTC+00:00)

Daily predictions for brighter satellites

Satellite Brightness Start Highest point End
(mag) Time Altitude Azimuth Time Altitude Azimuth Time Altitude Azimuth
Thor Agena Rocket 3.9 12:13:28 10° S 12:18:41 77° WSW 12:23:56 10° NNW
Delta 198 3.9 12:14:30 10° WNW 12:19:07 63° NNE 12:24:31 10° E
RESURS DK-1 3.9 12:18:53 10° NNE 12:21:07 14° ENE 12:23:19 10° ESE
Delta 7925 Rocket 3.6 12:16:32 10° WSW 12:21:16 68° NNW 12:26:54 10° ENE
Cosmos 1464 Rocket 4.0 12:20:11 10° S 12:26:30 72° E 12:32:44 10° N
Tiangong -1.3 12:31:48 10° WNW 12:34:53 53° SW 12:37:59 10° SE
SOZ 4.4 12:32:48 10° SSW 12:35:33 63° ESE 12:37:59 10° NNE
Cosmos 2369 Rocket 2.7 12:33:39 10° S 12:38:43 37° ESE 12:43:48 10° NE
MOS 1 Rocket 3.2 12:35:41 10° SSE 12:39:45 48° ENE 12:43:53 10° N
Cosmos 2297 4.3 12:34:33 10° S 12:39:46 37° ESE 12:44:58 10° NE
Cosmos 2034 Rocket 4.0 12:34:19 10° S 12:40:20 58° E 12:46:24 10° NNE
ARIANE 5 R/B 2.6 12:35:53 10° S 12:40:52 80° WSW 12:45:49 10° NNW
Cosmos 2082 Rocket 3.4 12:38:00 10° NNE 12:41:55 19° ENE 12:45:51 10° ESE
Helios 1A Rocket 2.5 12:39:39 10° N 12:43:02 81° WNW 12:46:25 10° SSW
Delta 2 Rocket 3.1 12:39:15 10° NW 12:43:16 77° NE 12:47:13 10° ESE
Cosmos 1455 Rocket 3.8 12:43:08 10° SSE 12:46:53 30° E 12:50:37 10° NNE
COSMO-SKYMED 1 2.5 12:43:02 10° N 12:47:09 83° WNW 12:51:15 10° SSW
AQUARIUS 4.1 12:43:16 10° SSE 12:47:39 90° SW 12:52:04 10° NNW
NATO 3D Rocket 4.4 12:43:06 10° WSW 12:49:12 75° SSE 12:56:13 17° E
Cosmos 1656 Rocket 4.2 12:49:25 10° SSW 12:54:47 59° WNW 13:00:15 10° N
CZ-2D R/B 3.7 12:51:00 10° SSE 12:54:49 42° ENE 12:58:42 10° N
Cosmos 2058 2.7 12:52:28 10° N 12:56:26 73° E 13:00:23 10° S
Cosmos 468 Rocket 4.4 12:51:58 10° N 12:56:39 35° ENE 13:01:17 10° SE
PSLV R/B 4.1 12:56:15 10° SE 12:59:50 31° ENE 13:03:25 10° NNE
BREEZE-M DEB (TANK) 4.0 12:48:12 10° SW 13:00:57 68° SE 13:03:31 23° NE
IRS-P3 4.4 12:57:04 10° S 13:02:21 74° WSW 13:07:41 10° NNW
ATLAS 5 CENTAUR R/B 2.6 12:59:05 10° NNW 13:04:36 73° WSW 13:11:13 10° SSE
Okean 1 Rocket 4.0 13:03:11 10° SSW 13:07:28 49° W 13:11:43 10° N
Cosmos 968 Rocket 3.8 13:09:07 10° SSW 13:14:10 66° WNW 13:19:16 10° N
SPOT 1/Viking Rocket 3.4 13:10:31 10° SSE 13:15:39 87° ENE 13:20:49 10° N
Cosmos 2026 Rocket 4.4 13:11:38 10° NNE 13:17:16 38° E 13:22:57 10° SSE
CENTAUR R/B 2.9 13:16:09 10° SSE 13:19:24 26° ESE 13:19:24 26° ESE
Cosmos 1862 3.4 13:18:33 10° NNW 13:22:08 64° W 13:25:44 10° S
Cosmos 2228 4.0 13:19:15 10° SSE 13:21:41 28° SE 13:21:41 28° SE
Cosmos 292 Rocket 4.3 13:20:37 10° SSE 13:24:33 37° ESE 13:24:33 37° ESE
YAOGAN 1 2.3 13:20:50 10° SSE 13:25:04 83° E 13:29:19 10° N
FUSE 4.3 13:20:56 10° WNW 13:26:00 45° NNE 13:27:03 40° NE
Spot 4 Rocket 3.9 13:21:57 10° SSE 13:27:02 90° SSW 13:32:08 10° NNW
Intelsat 5-1 Rocket 3.1 13:33:33 10° W 13:37:36 58° N 13:39:53 40° NE
Centaur AC-119 4.1 13:33:08 10° NW 13:38:53 43° NNE 13:40:16 40° NE
Resurs 1-3 3.8 13:34:47 10° S 13:39:02 67° WSW 13:43:18 10° NNW
Nadezhda 4 Rocket 4.5 13:33:20 10° NNW 13:39:26 60° W 13:45:28 10° S
Meteor 2-3 Rocket 3.6 13:34:12 10° N 13:39:46 63° E 13:45:16 10° SSE
Cosmos 1315 Rocket 4.5 13:36:29 10° S 13:37:51 21° S 13:37:51 21° S
GPS 2-15 Rocket1 3.3 13:39:24 10° W 13:43:47 58° NNW 13:43:47 58° NNW
H-2A R/B 3.4 13:45:01 10° NW 13:45:27 13° NW 13:45:27 13° NW
Cosmos 1627 Rocket 4.3 13:43:19 10° N 13:49:29 77° E 13:55:43 10° S
ATLAS 5 CENTAUR R/B 3.2 13:49:43 10° S 14:11:16 - NNE 13:52:24 45° SSE
VEP-3 2.6 13:48:31 10° WNW 13:54:22 86° NNE 13:55:41 58° E
NOAA 6 4.1 13:49:58 10° S 13:55:06 73° WSW 14:00:14 10° NNW
Cosmos 489 Rocket 4.4 13:54:24 10° NNW 14:00:36 80° WSW 14:06:47 10° S
USA 215 3.1 14:08:55 74° SE 14:09:36 90° NE 14:16:09 10° NW
Cosmos 2082 Rocket 3.7 14:20:54 10° NW 14:25:51 32° WSW 14:30:47 10° SSW
Atlas Centaur 2 4.3 21:31:18 33° ESE 21:31:18 33° ESE 21:36:30 10° E
SL-16 R/B 4.5 21:31:55 10° ESE 21:36:14 22° ENE 21:36:14 22° ENE
CZ-3 R/B 3.4 22:33:42 42° WNW 22:40:12 56° NNW 22:48:25 10° ENE
BREEZE-M DEB (TANK) 4.3 22:34:05 10° SSW 22:41:20 35° E 22:43:07 10° ENE
ATLAS 3B R/B 4.3 22:47:11 20° N 22:47:11 20° N 22:49:44 10° N
Cosmos 1782 Rocket 3.7 22:52:12 69° ESE 22:52:12 69° ESE 22:56:19 10° S
Cosmos 1300 Rocket 3.9 22:55:00 54° S 22:55:00 54° S 22:58:18 10° S
Cosmos 1818 3.5 22:50:24 10° SSW 22:55:46 81° ESE 23:01:11 10° NNE
Cosmos 1378 Rocket 4.2 22:53:44 10° S 22:57:52 52° E 23:02:00 10° NNE
Cosmos 1452 Rocket 3.5 22:53:42 10° S 22:58:55 77° ESE 23:04:07 10° NNE
Hubble Space Telescope 2.3 23:02:42 23° NNE 23:02:42 23° NNE 23:04:36 10° NE
Cosmos 2346 Rocket 4.3 22:57:35 10° SSW 23:03:41 66° W 23:09:44 10° N
Cosmos 1331 Rocket 3.9 22:59:06 10° SSW 23:04:19 66° WNW 23:09:31 10° N
Cosmos 1943 Rocket 3.0 23:06:55 32° SW 23:06:55 32° SW 23:10:41 10° SSW
Cosmos 2251 Rocket 3.5 23:03:16 27° N 23:06:17 82° ENE 23:11:36 10° SSE
UNK 3.8 23:02:52 10° SSE 23:07:22 73° ENE 23:10:30 20° N
Cosmos 1447 Rocket 4.4 23:04:14 10° SSW 23:10:21 61° W 23:16:33 10° N
Cosmos 1943 3.1 23:09:18 10° SSW 23:14:50 65° WNW 23:20:23 10° N
CZ-4 R/B 4.2 23:10:19 10° NNE 23:14:57 62° ESE 23:19:31 10° S
Atlas Centaur 2 2.8 23:13:19 25° WSW 23:18:26 80° NNW 23:25:42 10° ENE
Cosmos 2233 Rocket 3.9 23:12:59 10° N 23:19:10 70° W 23:25:17 10° S
GOES 2 Rocket 3.9 23:19:36 30° NNW 23:19:39 30° NNW 23:23:21 10° NE
SL-16 R/B 3.1 23:14:08 10° SSW 23:19:44 36° W 23:21:18 31° WNW
Cosmos 2278 Rocket 3.1 23:20:49 27° WSW 23:20:49 27° WSW 23:25:03 10° SSW
Cosmos 1725 Rocket 4.4 23:19:16 29° NW 23:21:40 40° W 23:27:25 10° SSW
Cosmos 1603 4.3 23:16:57 10° S 23:22:34 60° ESE 23:28:12 10° NNE
Meteor 1-11 4.5 23:19:01 10° S 23:24:49 75° E 23:30:39 10° N
NOAA 12 4.2 23:21:20 10° NNE 23:26:38 79° ESE 23:31:53 10° S
Cosmos 2061 Rocket 3.9 23:21:42 10° NNW 23:27:49 66° W 23:34:00 10° S
Iridium 4 Rocket 3.7 23:28:26 33° W 23:28:26 33° W 23:32:13 10° SSW
SEDSat Delta rocket 3.1 23:27:30 39° WNW 23:28:33 49° NNW 23:32:29 10° NE
Cosmos 2369 Rocket 4.2 23:24:47 10° NNE 23:29:29 26° ENE 23:34:11 10° SE
SJ-11-01 4.3 23:26:33 10° N 23:31:06 52° WNW 23:35:38 10° SSW
Cosmos 1190 Rocket 4.0 23:29:10 16° NNW 23:33:16 60° WSW 23:38:21 10° S
Cosmos 1869 2.8 23:30:35 15° N 23:33:21 77° W 23:36:52 10° S
USA 308 3.4 23:33:23 10° SSW 23:36:23 32° SE 23:38:22 10° ENE
Cosmos 676 Rocket 4.1 23:31:15 10° N 23:36:25 76° ENE 23:41:32 10° SSE
Ariane H10-3 4.3 23:31:10 10° WSW 23:40:12 23° SSW 23:43:51 10° SSE
SJ 16-02 1.2 23:38:53 12° NNW 23:42:39 59° W 23:46:49 10° S
Cosmos 1656 Rocket 3.7 23:37:23 10° NNW 23:43:03 86° ENE 23:48:39 10° SSE
Cosmos 1954 Rocket 4.0 23:40:28 10° NNW 23:45:29 57° WSW 23:50:29 10° S
Cosmos 1025 Rocket 3.0 23:48:00 10° SSW 23:52:16 61° W 23:56:34 10° N
Intelsat 5-2 Rocket 3.6 23:51:26 15° WNW 23:55:52 42° N 23:58:43 10° ENE
